Lebanon, NH

8:23 PM EST on November 17, 2019 (GMT -0500)
Lebanon Municipal

Weather History for KLEB - October, 2019

Change the Weather History Date:

Monday, October 21, 2019

  Actual Average Record
Temperature  
Mean Temperature 50 °F -  
Max Temperature 63 °F 56 °F 79 °F (2017)
Min Temperature 39 °F 35 °F 17 °F (1972)
Degree Days  
Heating Degree Days 14    
Moisture  
Dew Point 41 °F    
Average Humidity 84    
Maximum Humidity 90    
Minimum Humidity 53    
Precipitation  
Precipitation 0.00 in - - ()
Sea Level Pressure  
Sea Level Pressure 30.13 in    
Wind  
Wind Speed 2 mph (NNW)    
Max Wind Speed 6 mph    
Max Gust Speed -    
Visibility 4 miles    
Events Fog    
Averages and records for this station are not official NWS values.
T = Trace of Precipitation, MM = Missing Value Source: NWS Daily Summary

Daily Weather History Graph

Daily Weather History Graph

Search for Another Location

Airport or City:

Astronomy

Oct. 21, 2019 Rise Set
Actual Time 7:10 AM EDT 5:56 PM EDT
Civil Twilight 6:41 AM EDT 6:25 PM EDT
Nautical Twilight 6:07 AM EDT 6:58 PM EDT
Astronomical Twilight 5:34 AM EDT 7:32 PM EDT
Moon No Moon Rise 2:32 PM EDT (10/21)
Length of Visible Light 11h 44m
Length of Day
10h 45m
Waning Gibbous, 48% of the Moon is Illuminated
Oct 21
Waning Gibbous
Oct 27
New
Nov 4
First Quarter
Nov 12
Full
Nov 19
Last Quarter

Hourly Weather History & Observations

Time (EDT) Temp. Windchill Dew Point Humidity Pressure Visibility Wind Dir Wind Speed Gust Speed Precip Events Conditions
12:08 AM 46.9 °F - 44.1 °F 90% 30.05 in 0.5 mi Calm Calm - N/A Fog Fog
12:26 AM 46.0 °F 44.8 °F 43.0 °F 89% 30.06 in 0.2 mi South 3.5 mph - N/A Fog Fog
12:53 AM 46.0 °F 44.8 °F 43.0 °F 89% 30.07 in 0.2 mi South 3.5 mph - N/A Fog Fog
1:53 AM 45.0 °F - 42.1 °F 90% 30.07 in 0.2 mi Calm Calm - N/A Fog Fog
2:53 AM 45.0 °F - 42.1 °F 90% 30.08 in 0.2 mi Calm Calm - N/A Fog Fog
3:53 AM 46.0 °F - 43.0 °F 89% 30.08 in 0.2 mi Calm Calm - N/A Fog Fog
4:53 AM 45.0 °F 42.6 °F 41.0 °F 86% 30.09 in 0.2 mi NW 4.6 mph - N/A Fog Fog
5:53 AM 45.0 °F 43.5 °F 42.1 °F 90% 30.10 in 0.2 mi North 3.5 mph - N/A Fog Fog
6:12 AM 45.0 °F 42.6 °F 42.1 °F 90% 30.10 in 0.5 mi NNW 4.6 mph - N/A Fog Fog
6:53 AM 44.1 °F 41.5 °F 41.0 °F 89% 30.12 in 1.0 mi NE 4.6 mph - N/A   Overcast
7:53 AM 44.1 °F 40.8 °F 41.0 °F 89% 30.14 in 0.5 mi North 5.8 mph - N/A Fog Fog
8:53 AM 44.1 °F 42.5 °F 41.0 °F 89% 30.16 in 0.8 mi NNW 3.5 mph - N/A   Overcast
9:00 AM 44.1 °F 40.8 °F 41.0 °F 89% 30.15 in 1.0 mi North 5.8 mph - N/A   Overcast
9:53 AM 45.0 °F 43.5 °F 41.0 °F 86% 30.17 in 1.5 mi North 3.5 mph - N/A   Overcast
10:53 AM 46.0 °F 44.8 °F 42.1 °F 86% 30.17 in 1.5 mi NNW 3.5 mph - N/A   Overcast
11:53 AM 46.9 °F - 42.1 °F 83% 30.17 in 4.0 mi NW 4.6 mph - N/A   Haze
12:05 PM 46.9 °F - 42.1 °F 83% 30.16 in 10.0 mi WNW 3.5 mph - N/A   Overcast
12:23 PM 48.9 °F - 43.0 °F 80% 30.15 in 10.0 mi Calm Calm - N/A   Overcast
12:41 PM 48.9 °F - 43.0 °F 80% 30.15 in 10.0 mi Calm Calm - N/A   Overcast
12:53 PM 50.0 °F - 44.1 °F 80% 30.15 in 10.0 mi Calm Calm - N/A   Overcast
1:06 PM 50.0 °F - 43.0 °F 77% 30.14 in 9.0 mi Calm Calm - N/A   Mostly Cloudy
1:40 PM 52.0 °F - 44.1 °F 74% 30.12 in 10.0 mi Calm Calm - N/A   Clear
1:53 PM 54.0 °F - 46.0 °F 75% 30.12 in 10.0 mi Calm Calm - N/A   Clear
2:53 PM 57.9 °F - 46.0 °F 65% 30.10 in 10.0 mi Calm Calm - N/A   Clear
3:53 PM 61.0 °F - 46.9 °F 60% 30.09 in 10.0 mi Calm Calm - N/A   Clear
4:53 PM 62.1 °F - 45.0 °F 53% 30.11 in 10.0 mi Calm Calm - N/A   Clear
5:53 PM 51.1 °F - 45.0 °F 80% 30.13 in 10.0 mi South 3.5 mph - N/A   Clear
6:53 PM 46.0 °F - 41.0 °F 83% 30.15 in 10.0 mi Calm Calm - N/A   Clear
7:53 PM 43.0 °F 41.3 °F 39.0 °F 86% 30.15 in 6.0 mi NNE 3.5 mph - N/A   Clear
8:53 PM 42.1 °F 40.2 °F 37.9 °F 85% 30.17 in 3.0 mi South 3.5 mph - N/A   Clear
9:53 PM 39.0 °F - 36.0 °F 89% 30.19 in 4.0 mi Calm Calm - N/A   Clear
10:02 PM 41.0 °F - 37.0 °F 86% 30.17 in 4.0 mi Calm Calm - N/A   Partly Cloudy
10:06 PM 39.9 °F - 37.0 °F 89% 30.17 in 1.8 mi Calm Calm - N/A   Scattered Clouds
10:13 PM 39.9 °F - 36.0 °F 86% 30.17 in 0.8 mi Calm Calm - N/A   Mist
10:53 PM 39.9 °F - 36.0 °F 86% 30.17 in 2.0 mi Calm Calm - N/A   Mostly Cloudy
11:07 PM 39.0 °F 36.8 °F 36.0 °F 89% 30.16 in 5.0 mi SSE 3.5 mph - N/A   Mostly Cloudy
11:14 PM 39.0 °F - 36.0 °F 89% 30.16 in 1.8 mi Calm Calm - N/A   Mostly Cloudy
11:29 PM 41.0 °F - 37.0 °F 86% 30.16 in 0.2 mi Calm Calm - N/A Fog Fog
11:53 PM 42.1 °F - 39.0 °F 89% 30.17 in 0.2 mi Calm Calm - N/A Fog Fog